EW9981 Weather Reports


Display with metric or nautical units.
time (UTC)temp
F
wind
direction
speed
MPH
gust
MPH
rain 1hr
in
rain 24hr
in
rain mn
in
humidity
%
barometer
mb
20260507071545 43 330 0.0 1.0 0.00 0.00 0.00 76 1015.4
20260507070044 43 330 0.0 0.0 0.00 0.00 0.00 76 1015.5
20260507064540 43 330 0.0 1.0 0.00 0.00 0.00 76 1015.7
20260507063046 44 306 0.0 1.0 0.00 0.00 0.00 76 1015.6
20260507061541 44 303 0.0 0.0 0.00 0.00 0.00 75 1015.6
20260507060049 45 307 0.0 0.0 0.00 0.00 0.00 74 1015.7
20260507054508 45 307 0.0 0.0 0.00 0.00 0.00 74 1015.7
20260507053007 46 307 0.0 0.0 0.00 0.00 0.00 73 1015.7
20260507051505 46 307 0.0 0.0 0.00 0.00 0.00 72 1015.7
20260507050005 47 307 0.0 0.0 0.00 0.00 0.00 73 1015.7
20260507044511 48 307 0.0 0.0 0.00 0.00 0.00 72 1015.6
20260507043003 49 307 0.0 0.0 0.00 0.00 0.00 71 1015.5
20260507041606 49 307 0.0 0.0 0.00 0.00 0.00 71 1015.4
20260507040100 50 307 0.0 0.0 0.00 0.00 0.00 69 1015.5
20260507034613 52 307 0.0 0.0 0.00 0.00 0.00 68 1015.3
20260507033059 53 307 0.0 0.0 0.00 0.00 0.00 66 1015.2
20260507031558 54 307 0.0 0.0 0.00 0.00 0.00 65 1015.0
20260507024559 57 307 0.0 0.0 0.00 0.00 0.00 61 1014.9
20260507023056 58 307 0.0 0.0 0.00 0.00 0.00 58 1014.9
20260507021556 60 307 0.0 1.0 0.00 0.00 0.00 54 1015.0
20260507020053 60 307 0.0 0.0 0.00 0.00 0.00 51 1015.0
20260507014554 62 313 0.0 0.0 0.00 0.00 0.00 49 1015.1
20260507013100 63 325 0.0 0.0 0.00 0.00 0.00 47 1015.0
20260507011550 63 305 0.0 1.0 0.00 0.00 0.00 46 1015.0
20260507010050 64 346 0.0 1.0 0.00 0.00 0.00 45 1014.9
20260507004549 65 349 0.0 1.0 0.00 0.00 0.00 45 1014.9
20260507003048 65 300 0.0 5.0 0.00 0.00 0.00 44 1014.9
20260507001524 65 336 0.0 1.0 0.00 0.00 0.00 44 1014.8
20260507000018 66 242 0.0 3.0 0.00 0.00 0.00 43 1014.8
20260506234515 66 322 0.0 4.0 0.00 0.00 0.00 42 1014.8
20260506233014 66 288 0.0 1.0 0.00 0.00 0.00 42 1014.7
20260506231514 66 324 0.0 2.0 0.00 0.00 0.00 41 1014.9
20260506230011 66 285 0.0 1.0 0.00 0.00 0.00 43 1014.9
20260506224508 66 235 0.0 1.0 0.00 0.00 0.00 44 1015.1
20260506223008 65 287 0.0 1.0 0.00 0.00 0.00 44 1015.3
20260506221507 66 276 0.0 2.0 0.00 0.00 0.00 44 1015.3
20260506220007 65 234 0.0 0.0 0.00 0.00 0.00 46 1015.6
20260506214506 66 285 0.0 1.0 0.00 0.00 0.00 44 1015.7
20260506213002 65 273 0.0 2.0 0.00 0.00 0.00 46 1016.0
20260506211559 64 305 0.0 0.0 0.00 0.00 0.00 49 1016.1
20260506210057 63 299 0.0 1.0 0.00 0.00 0.00 50 1016.0
20260506204604 63 271 0.0 0.0 0.00 0.00 0.00 52 1016.2
20260506203052 62 290 0.0 3.0 0.00 0.00 0.00 53 1016.4
20260506201546 61 255 0.0 0.0 0.00 0.00 0.00 56 1016.4
20260506200044 61 244 0.0 1.0 0.00 0.00 0.00 57 1016.6
20260506194555 60 261 0.0 0.0 0.00 0.00 0.00 55 1016.7
20260506193038 59 262 0.0 1.0 0.00 0.00 0.00 56 1016.8
20260506191537 59 263 0.0 0.0 0.00 0.00 0.00 55 1016.8
20260506190036 59 256 0.0 0.0 0.00 0.00 0.00 55 1016.9
20260506184533 59 250 0.0 0.0 0.00 0.00 0.00 57 1017.1
20260506183032 58 294 0.0 4.0 0.00 0.00 0.00 55 1017.3
20260506181533 57 248 0.0 3.0 0.00 0.02 0.00 57 1017.3
20260506180026 56 247 0.0 1.0 0.00 0.02 0.00 58 1017.2
20260506174518 55 287 0.0 1.0 0.00 0.02 0.00 57 1017.3
20260506173013 53 274 0.0 0.0 0.00 0.02 0.00 55 1017.2
20260506171512 52 286 0.0 2.0 0.00 0.06 0.00 55 1017.2
20260506170007 51 298 0.0 1.0 0.00 0.06 0.00 60 1016.9
20260506164604 49 293 0.0 1.0 0.00 0.06 0.00 69 1016.8
20260506163104 46 263 0.0 0.0 0.00 0.06 0.00 85 1016.7
20260506161600 44 273 0.0 0.0 0.00 0.09 0.00 93 1016.7
20260506160047 42 276 0.0 0.0 0.00 0.09 0.00 94 1016.6
20260506154552 41 277 0.0 0.0 0.00 0.09 0.00 94 1016.6
20260506153008 39 276 0.0 0.0 0.00 0.09 0.00 94 1016.6
20260506151505 37 276 0.0 0.0 0.00 0.14 0.00 93 1016.6
20260506150100 36 278 0.0 0.0 0.00 0.14 0.00 93 1016.6
20260506144602 34 278 0.0 0.0 0.00 0.14 0.00 92 1016.6
20260506143052 33 278 0.0 0.0 0.00 0.14 0.00 91 1016.5
20260506141551 33 278 0.0 0.0 0.00 0.19 0.00 91 1016.3
20260506140057 33 278 0.0 0.0 0.00 0.19 0.00 91 1016.2
20260506134544 33 278 0.0 0.0 0.00 0.19 0.00 90 1016.1
20260506133049 33 278 0.0 0.0 0.00 0.19 0.00 90 1015.9
20260506131542 33 278 0.0 0.0 0.00 0.20 0.00 90 1015.7
20260506130011 33 278 0.0 0.0 0.00 0.20 0.00 90 1015.5
20260506124509 33 278 0.0 0.0 0.00 0.20 0.00 90 1015.3
20260506123006 33 278 0.0 0.0 0.00 0.20 0.00 90 1015.1
20260506121504 33 278 0.0 0.0 0.00 0.20 0.00 90 1015.0
20260506120004 33 278 0.0 0.0 0.00 0.20 0.00 89 1014.9
20260506114502 33 278 0.0 0.0 0.00 0.20 0.00 89 1014.8
20260506113101 33 278 0.0 1.0 0.00 0.20 0.00 89 1014.8
20260506111606 33 278 0.0 0.0 0.00 0.21 0.20 89 1014.6
20260506110055 34 278 0.0 0.0 0.00 0.21 0.20 89 1014.5
20260506104558 34 278 0.0 0.0 0.00 0.21 0.20 89 1014.4
20260506103058 34 278 0.0 0.0 0.00 0.21 0.20 88 1014.3
20260506101552 35 278 0.0 0.0 0.00 0.21 0.20 88 1014.1
20260506100048 35 278 0.0 0.0 0.00 0.21 0.20 88 1014.1
20260506094545 36 278 0.0 0.0 0.00 0.21 0.20 88 1014.1
20260506093040 36 278 0.0 0.0 0.00 0.21 0.20 88 1014.2
20260506091538 37 278 0.0 0.0 0.00 0.21 0.20 88 1014.3
20260506090036 38 278 0.0 0.0 0.00 0.21 0.20 88 1014.3
20260506084540 39 278 0.0 0.0 0.00 0.21 0.20 89 1014.4
20260506083009 39 278 0.0 0.0 0.00 0.21 0.20 90 1014.5
20260506081504 40 278 0.0 0.0 0.00 0.21 0.20 90 1014.5
20260506073100 40 278 0.0 0.0 0.00 0.21 0.20 91 1014.8
20260506073001 40 278 0.0 0.0 0.00 0.21 0.20 91 1014.8